Location: Johnson City
(36.3130°N, 82.3540°W)
Time: 06:58:38
(UTC-04:00)

Envisat - Visible Passes

Search period start: 26 September 2017 00:00
Search period end: 06 October 2017 00:00
Orbit: 764 x 766 km, 98.2° (Epoch: 26 September)

Date Brightness Start Highest point End Pass type
(mag) Time Alt. Az. Time Alt. Az. Time Alt. Az.
26 Sep 2.9 21:24:15 71° SSE 21:24:49 89° ENE 21:29:56 10° NNW visible
27 Sep 3.5 20:47:17 35° E 20:48:15 38° ENE 20:52:56 10° N visible
27 Sep 5.1 22:27:29 21° W 22:27:29 21° W 22:31:10 10° NW visible
28 Sep 4.5 20:10:18 15° E 20:11:52 18° ENE 20:15:09 10° NNE visible
28 Sep 3.7 21:50:31 49° W 21:50:31 49° W 21:55:23 10° NNW visible
29 Sep 2.8 21:13:32 69° E 21:13:44 70° ENE 21:18:48 10° N visible
29 Sep 5.9 22:53:45 11° W 22:53:45 11° W 22:54:39 10° WNW visible
30 Sep 3.7 20:36:34 29° E 20:37:13 30° ENE 20:41:37 10° N visible
30 Sep 4.9 22:16:47 26° W 22:16:47 26° W 22:20:27 10° NW visible
01 Oct 4.7 19:59:36 13° E 20:00:54 14° ENE 20:03:24 10° NE visible
01 Oct 3.4 21:39:49 60° WNW 21:39:49 60° WNW 21:44:23 10° NNW visible
02 Oct 3.1 21:02:50 54° ENE 21:02:50 54° ENE 21:07:37 10° N visible
02 Oct 5.7 22:43:03 14° WNW 22:43:03 14° WNW 22:44:48 10° WNW visible
03 Oct 4.0 20:25:51 24° ENE 20:26:13 24° ENE 20:30:14 10° NNE visible
03 Oct 4.6 22:06:04 31° WNW 22:06:04 31° WNW 22:09:38 10° NNW visible
04 Oct 4.9 19:48:53 10° ENE 19:49:57 11° ENE 19:51:02 10° NE visible
04 Oct 3.3 21:29:06 62° NNW 21:29:06 62° NNW 21:33:19 10° NNW visible
05 Oct 3.4 20:52:08 41° NE 20:52:08 41° NE 20:56:24 10° N visible
05 Oct 5.5 22:32:21 17° WNW 22:32:21 17° WNW 22:34:22 10° NW visible
